Preview of NWS' New Version of Forecast
This preview is not operational and should not be used for support decisions.

Regional Weather Roundup (RWR)

Issued by National Weather Service (NWS)

                            
000
ASUS45 KCYS 211810
RWRWY 

WYOMING REGIONAL WEATHER ROUNDUP
NATIONAL WEATHER SERVICE CHEYENNE WY
1100 AM MST THU FEB 21 2019

NOTE:  "FAIR" INDICATES FEW OR NO CLOUDS BELOW 12,000 FEET
WITH NO SIGNIFICANT WEATHER AND/OR OBSTRUCTIONS TO VISIBILITY.

WYZ001-211900-
...YELLOWSTONE NATIONAL PARK...
  
CITY           SKY/WX    TMP DP  RH WIND       PRES   REMARKS
LK YELLOWSTONE   N/A      9  -1  64 VRB3      29.71S                  
6HR MIN TEMP:  -9; 6HR MAX TEMP:   9;                                

W YELLOWSTONE  NOT AVBL                                               

$$
WYZ002>013-054>058-071-098>099-211900-
...NORTHERN WYOMING...
  
CITY           SKY/WX    TMP DP  RH WIND       PRES   REMARKS
JACKSON        SUNNY      7  -5  57 S8        29.75S WCI  -6          
CODY           PTSUNNY   18  10  71 N16       29.92R HAZE    WCI   3  
GREYBULL       CLOUDY    20  11  68 N5        29.96S WCI  13          
6HR MIN TEMP:   7; 6HR MAX TEMP:  20;                                

WORLAND        LGT SNOW  18  13  80 CALM      29.94S                  
6HR MIN TEMP:   9; 6HR MAX TEMP:  18; 6HR PCP: TRACE;                

SHERIDAN       PTSUNNY   19  12  74 NW3       30.00R                  
6HR MIN TEMP:  10; 6HR MAX TEMP:  21; 6HR PCP: TRACE;                

BUFFALO        LGT SNOW  17  11  77 N7        29.93R VSB 1   WCI   8  
6HR MIN TEMP:  11; 6HR MAX TEMP:  16; 6HR PCP:  0.01;                

GILLETTE       CLOUDY    18  12  77 N6        29.96S WCI  10          
6HR MIN TEMP:  -8; 6HR MAX TEMP:  19; 6HR PCP: TRACE;                

HULETT         FAIR      19   9  63 MISG      29.98R                  
NEWCASTLE        N/A     14   3  62 CALM      29.99R                  

$$
WYZ014>020-022>026-101>103-211900-
...CENTRAL WYOMING...
  
CITY           SKY/WX    TMP DP  RH WIND       PRES   REMARKS
BIG PINEY      CLOUDY     4  -2  76 CALM      29.70S HAZE             
6HR MIN TEMP: -10; 6HR MAX TEMP:   5; 6HR PCP: TRACE;                

PINEDALE       CLOUDY     3   0  85 NW6       29.69S WCI  -8          
DUBOIS         CLOUDY     9   1  72 CALM      29.73S                  
LANDER         LGT SNOW  15   9  76 W5        29.83F WCI   8          
6HR MIN TEMP:   9; 6HR MAX TEMP:  15; 6HR PCP:  0.04;                

RIVERTON       LGT SNOW  17  10  74 N14       29.84S WCI   3          
6HR MIN TEMP:   8; 6HR MAX TEMP:  17; 6HR PCP:  0.03;                

CASPER         LGT SNOW  18  13  80 NE10      29.84F WCI   6          
6HR MIN TEMP:  -1; 6HR MAX TEMP:  18; 6HR PCP:  0.01;                

DOUGLAS        CLOUDY    22  13  68 E8        29.89S WCI  12          
6HR MIN TEMP:   3; 6HR MAX TEMP:  22;                                


$$
WYZ021-027>030-104>119-211900-
...SOUTHERN WYOMING...
  
CITY           SKY/WX    TMP DP  RH WIND       PRES   REMARKS
EVANSTON       CLOUDY     8   1  73 E12       29.62S WCI  -7          
6HR MIN TEMP:   2; 6HR MAX TEMP:   8; 6HR PCP: TRACE;                

KEMMERER       NOT AVBL                                               
FORT BRIDGER   PTSUNNY    6   4  91 NE8       29.68S FOG     WCI  -7  
ROCK SPRINGS   CLOUDY    12   6  77 NE22      29.68S WCI  -7          
6HR MIN TEMP:   6; 6HR MAX TEMP:  12; 6HR PCP: TRACE;                

DIXON          FAIR      21   7  55 S6        29.68R WCI  13          
RAWLINS        PTSUNNY   17   6  62 NE15      29.68F WCI   2          
6HR MIN TEMP:   8; 6HR MAX TEMP:  18; 6HR PCP: TRACE;                

SARATOGA       FAIR      18   5  57 NW3       29.66S                  
LARAMIE        CLOUDY    20  10  65 SE18      29.66F WCI   5          
6HR MIN TEMP:   3; 6HR MAX TEMP:  20;                                

CHEYENNE       LGT SNOW  21  13  71 E13G18    29.75S WCI   9          
6HR MIN TEMP:   7; 6HR MAX TEMP:  21; 6HR PCP: TRACE;                

TORRINGTON     CLOUDY    28  11  48 NE12      29.88F WCI  18          
6HR MIN TEMP:   9; 6HR MAX TEMP:  28;                                

PINE BLUFFS    CLOUDY    28  12  50 E14G20    29.80S WCI  17          

$$